{"data":{"norad_id":65360,"epoch":"2026-05-24T19:28:19.364736Z","epoch_age_seconds":101509,"freshness":"FRESH","line1":"1 65360U 25190K   26144.81133524  .00019898  00000+0  59854-3 0  9999","line2":"2 65360  53.1596 174.3276 0001072  78.2414 281.8709 15.34397086 40945","mean_motion":15.34397086,"eccentricity":0.0001072,"inclination_deg":53.1596,"raan_deg":174.3276,"arg_perigee_deg":78.2414,"mean_anomaly_deg":281.8709,"bstar":0.00059854,"rev_number":4094,"period_min":93.847936309233,"perigee_km":461.9785622407,"apogee_km":463.44524024512,"semimajor_km":6840.8489012429,"source":"CELESTRAK","updated_at":"2026-05-25T13:38:20.766619Z"}}